VINASAT-1               
1 32767U 08018A   19258.85616347 -.00000337  00000-0  00000-0 0  9991
2 32767   0.0465 314.6670 0001959 236.1670 243.8620  1.00272628 41871
STAR ONE C2             
1 32768U 08018B   19258.81594771 -.00000273  00000-0  00000-0 0  9993
2 32768   0.0154 163.3269 0002788  16.2862  38.6062  1.00271211 41946
ARIANE 5 R/B            
1 32769U 08018C   19258.56799908  .00000454  00000-0  22022-3 0  9996
2 32769   1.8090 304.3864 7053506 307.1542   7.2908  2.56134819101314